{"data":{"norad_id":54783,"epoch":"2026-05-25T03:45:34.553088Z","epoch_age_seconds":58044,"freshness":"FRESH","line1":"1 54783U 22175AB  26145.15664992 -.00000541  00000+0 -15867-4 0  9996","line2":"2 54783  53.2130  45.8305 0001549  63.4606 296.6544 15.08838824191679","mean_motion":15.08838824,"eccentricity":0.0001549,"inclination_deg":53.213,"raan_deg":45.8305,"arg_perigee_deg":63.4606,"mean_anomaly_deg":296.6544,"bstar":-1.5867e-5,"rev_number":19167,"period_min":95.437629062493,"perigee_km":538.67540329892,"apogee_km":540.81856375702,"semimajor_km":6917.883983528,"source":"CELESTRAK","updated_at":"2026-05-25T13:38:17.693068Z"}}